www.pogodaiklimat.ru
Время
(UTC), дата
18 7.08
21 7.08
00 8.08
03 8.08
06 8.08
09 8.08
12 8.08
15 8.08
18 8.08
21 8.08
00 9.08
03 9.08
06 9.08
09 9.08
12 9.08
15 9.08
18 9.08
21 9.08
00 10.08
03 10.08
06 10.08
09 10.08
12 10.08
15 10.08
18 10.08
21 10.08
00 11.08
03 11.08
06 11.08
09 11.08
12 11.08
15 11.08
18 11.08
21 11.08
00 12.08
03 12.08
06 12.08
09 12.08
12 12.08
15 12.08
18 12.08
21 12.08
00 13.08
03 13.08
06 13.08
09 13.08
12 13.08
15 13.08
18 13.08
21 13.08
00 14.08
03 14.08
06 14.08
09 14.08
12 14.08
15 14.08
Ветер
(напр.,м/с)
Видим. Явления Облачность Т
(С)
Тd
(С)
f
(%)
Тe
(С)
Тes
(С)
Комфортность P
(гПа)
Po
(гПа)
Тmin
(С)
Tmax
(С)
R
(мм)
R24
(мм)
S
(см)
штиль 0 н/о 6/0
[Ci fib]
+12.2 +10.3 88 +12 +12 1010.3 980.2
штиль 0 н/о местами туман поземный 3/0
[Ci fib]
+10.2 +9.4 95 +9 +9 1011.2 980.9
штиль 0 50 км 6/3 1000 м
[Sc Ci fib]
+11.8 +11.0 95 +11 +12 1011.5 981.3 +9.0
СЗ 1 50 км 9/3 600 м
[Cu Sc Ac trans Ci fib]
+17.9 +13.9 77 +19 +23 1010.3 980.9
штиль 0 50 км 10/4 600 м
[Cu med, cong Ac trans Ci fib]
+23.3 +14.3 57 +27 +32 душно 1009.0 980.1
СЗ 1 50 км 10/3 600 м
[Cu hum Ci fib]
+25.1 +14.2 51 +28 +33 жарко 1008.4 979.7
СЗ 1 50 км 8/3 600 м
[Cu hum Ci fib]
+25.4 +15.0 53 +28 +29 жарко 1007.7 979.0 +26.0
штиль 0 н/о 6/0
[Ci fib]
+18.5 +15.8 84 +19 +19 1008.3 979.0
штиль 0 н/о 8/0
[Ac trans Ci fib]
+16.1 +15.2 94 +16 +16 1008.6 979.0
штиль 0 н/о местами туман поземный ясно +13.0 +12.3 96 +12 +12 1008.5 978.6
штиль 0 50 км ясно +13.0 +12.8 99 +12 +14 1008.6 978.7 +10.3
ЮВ 1 50 км ясно +21.8 +15.8 69 +25 +36 комфорт 1007.1 978.2
В 2 50 км 3/3 1000 м
[Cu hum]
+26.4 +14.6 48 +29 +38 жарко 1005.5 976.9
СВ 2 20 км 3/0
[Ci fib]
+27.8 +12.4 39 +29 +37 жарко 1004.3 975.8
СВ 2 20 км ясно +27.0 +12.6 41 +29 +29 жарко 1003.5 975.1 +28.5
штиль 0 н/о ясно +18.9 +13.9 73 +20 +20 1004.6 975.4
штиль 0 н/о ясно +13.4 +12.7 96 +13 +13 1004.8 975.0
ЮВ 1 н/о ясно +10.4 +10.0 97 +10 +10 1004.6 974.5
штиль 0 20 км ясно +11.2 +10.8 97 +10 +12 1004.5 974.5 +9.0
СВ 2 50 км ясно +22.9 +13.2 54 +26 +34 жарко 1003.4 974.6
СВ 2 50 км ясно +27.6 +11.4 36 +28 +42 жарко 1001.7 973.3
СВ 4 50 км ясно +29.2 +9.6 29 +29 +34 жарко 1000.2 972.1
В 3 50 км ясно +27.9 +9.4 31 +28 +29 жарко 1000.2 971.9 +29.5
СЗ 1 н/о ясно +16.2 +11.4 73 +17 +17 1001.6 972.2
штиль 0 н/о ясно +11.7 +9.7 88 +11 +11 1002.5 972.5
штиль 0 н/о местами туман поземный ясно +9.2 +7.7 90 +8 +8 1002.8 972.5
штиль 0 20 км в посл. час туман ясно +9.8 +9.6 99 +9 +10 1003.5 973.3 +7.5
штиль 0 50 км ясно +19.9 +13.3 66 +22 +33 комфорт 1003.4 974.3
штиль 0 20 км ясно +26.4 +14.8 49 +29 +47 жарко 1002.0 973.5
ЮЗ 2 50 км 6/4 600 м
[Cu hum Ci fib]
+29.4 +11.7 34 +30 +35 жарко 1000.3 972.2
З 2 50 км ясно +28.8 +10.0 31 +29 +30 жарко 1000.3 972.1 +30.0
штиль 0 н/о 3/0
[Ci fib]
+17.7 +13.3 75 +18 +18 1002.4 973.0
штиль 0 н/о ясно +12.6 +11.1 91 +12 +12 1003.0 973.1
штиль 0 н/о ясно +9.8 +8.8 93 +9 +9 1002.9 972.7
штиль 0 20 км ясно +10.8 +10.4 97 +10 +11 1003.9 973.8 +8.7
штиль 0 50 км ясно +21.9 +14.6 63 +25 +36 комфорт 1002.2 973.3
ЮЗ 1 50 км 3/0
[Ci fib]
+27.8 +15.2 46 +30 +45 жарко 1000.3 972.1
З 1 50 км 10/3 600 м
[Cu med, cong Ac As Ci fib]
+30.0 +14.2 38 +32 +35 жарко 998.9 970.9
З 1 50 км в посл. час гроза 10/10 600 м
[Cb cap]
+27.6 +15.6 48 +31 +31 душно 999.3 971.1 +30.8
штиль 0 н/о зарница {гроза, ливн. дождь} 10/10 600 м
[Cb cap]
+19.1 +18.0 93 +21 +21 комфорт 1003.4 974.2
штиль 0 н/о {гроза, ливн. дождь} 6/0
[Ci fib]
+16.7 +16.2 97 +17 +17 1003.2 973.8
штиль 0 н/о местами туман поземный 8/3 1000 м
[Sc Ci fib]
+16.1 +15.7 97 +16 +16 1003.4 973.9
штиль 0 50 км ясно +15.5 +15.3 99 +15 +16 1003.8 974.3 +14.3 2
Ю 1 50 км 4/0
[Ac lent]
+21.4 +16.3 73 +25 +32 комфорт 1003.2 974.3
СВ 2 50 км 3/3 1000 м
[Cu med, cong Ci fib]
+26.7 +15.4 50 +30 +39 душно 1001.4 973.0
ЮВ 1 50 км 8/4 1000 м
[Cu med, cong Ci fib]
+29.7 +14.8 40 +32 +36 душно 999.5 971.5
В 4
{16}
50 км в посл. час гроза 9/6 600 м
[Cb cap Ci fib]
+22.7 +13.8 57 +26 +26 жарко 1001.5 972.7 +30.4
З 1 н/о 8/6 1000 м
[Sc Ci fib]
+21.0 +13.2 61 +25 +25 комфорт 1002.7 973.7
СЗ 1 н/о 8/0
[Ac trans Ci fib]
+18.3 +13.4 73 +20 +20 1003.5 974.2
В 1 н/о 6/0
[Ac trans Ci fib]
+14.0 +13.3 96 +14 +14 1004.2 974.5
ЮВ 1 50 км 9/8 1000 м
[Sc Ac trans]
+14.2 +13.7 97 +14 +15 1005.3 975.5 +12.6
Ю 1 50 км 10/10 600 м
[Cb cap]
+19.5 +14.2 71 +22 +22 комфорт 1005.3 976.1
С 1 50 км слаб. ливневой дождь 9/8 600 м
[Cb cap Ci fib]
+20.5 +16.0 75 +25 +27 комфорт 1005.1 976.1
СЗ 1 50 км {ливн. дождь} 6/3 600 м
[Cu med, cong Ci fib]
+26.4 +14.4 48 +29 +34 жарко 1003.4 974.9
З 1 50 км {ливн. дождь} 9/3 600 м
[Cu Sc Ci fib]
+27.2 +12.0 39 +28 +29 жарко 1003.1 974.7 +27.6 0.0
ЮЗ 1 н/о 8/4 600 м
[Cu Sc Ci fib]
+18.7 +14.4 76 +21 +21 комфорт 1005.0 975.7
Местоположение метеостанции Минусинск (Красноярский край, Россия): широта 53.72 долгота 91.70 высота над уровнем моря 255 м.
В архиве по умолчанию представлена погода в Минусинске за последнюю неделю. Архивные данные за месяц целиком и за предыдущие месяцы, начиная с января 2011 года, Вы можете получить, выбрав интересующий диапазон дат из раскрывающегося списка и нажав кнопку "Найти!".
*Определитесь, кто Вы:
Внимание! Время в таблицах - всемирное. Для получения местного времени необходимо прибавить поправку, которая равна 7 ч.
Смотрите также архив погоды в соседних городах и на ближайших метеорологических станциях:
Партнеры нашего сайта:      
Пояснения к столбцам:
  • Ветер - указаны скорость ветра в м/с - средняя за 10 мин, порывы в срок и между сроками (в фигурных скобках) и направление, откуда дует ветер: С - северный,
  • СВ - северо-восточный, В - восточный, ЮВ - юго-восточный, Ю - южный, ЮЗ - юго-западный, З - западный, СЗ - северо-западный.
  • Видимость - горизонтальная дальность видимости в метрах или километрах. При видимости от 1 до 10 км при отсутствии осадков обычно наблюдается дымка, при ухудшении видимости до 1 км и менее - туман. В сухую погоду видимость может ухудшаться дымом, пылью или мглою.
  • Явления - указаны атмосферные явления, наблюдавшиеся в срок или в последний час перед сроком; фигурными скобками обозначены явления, наблюдавшиеся между сроками (за 1-3 часа до срока); квадратными скобками обозначены град или гололедные отложения с указанием их диаметра в мм.
  • Облачность - указаны через наклонную черту общая и нижняя облачность в баллах и высота нижней границы облаков в метрах; квадратными скобками обозначены формы облаков: Ci - перистые, Cs - перисто-слоистые, Cc - перисто-кучевые, Ac - высококучевые, As - высокослоистые, Sc - слоисто-кучевые, Ns - слоисто-дождевые, Cu - кучевые, Cb - кучево-дождевые. Подробнее классификацию облаков см. в Атласе облаков (PDF).
  • T - Температура воздуха - температура, измеренная на высоте 2 м над землей.
  • Td - Температура точки росы - температура, при понижении до которой содержащийся в воздухе водяной пар достигнет насыщения.
  • f - Относительная влажность воздуха - влажноcть воздуха, измеренная на высоте 2 м над землей.
  • Te - Эффективная температура - температура, которую ощущает одетый по сезону человек в тени. Характеристика душности погоды. При расчете учитывается влияние влажности воздуха и скорости ветра на теплоощущения человека.
  • Tes - Эффективная температура на солнце - температура, которую ощущает человек, с поправкой на солнечный нагрев. Характеристика знойности погоды. Зависит от высоты солнца над горизонтом, облачности и скорости ветра. Ночью, в пасмурную погоду, а также при ветре 12 м/с и более поправка равна нулю.
  • P - Атмосферное давление - приведенное к уровню моря атмосферное давление.
  • Po - Атмосферное давление - измеренное на уровне метеостанции атмосферное давление.
  • Tmin - Минимальная температура - минимум температуры воздуха на высоте 2 м над землей.
  • Tmax - Максимальная температура - максимум температуры воздуха на высоте 2 м над землей.
  • R - Количество осадков - Количество выпавших осадков за период времени, мм. При наведении курсора мыши на число - период времени, за который выпало указанное количество осадков.
  • R24 - Количество осадков - Количество выпавших осадков за 24 часа, мм.
  • S - Снежный покров - Высота снежного покрова, см. При наведении курсора мыши на число - состояние снежного покрова и степень покрытия местности в баллах.